Weather History for Central Park, NY

Change the Weather History Date:

Sunday, November 27, 2011

  Actual Average Record
Temperature  
Mean Temperature 55 °F 44 °F  
Max Temperature 63 °F 50 °F 72 °F (1896)
Min Temperature 47 °F 38 °F 12 °F (1932)
Degree Days  
Heating Degree Days 10 21  
Month to date heating degree days 360 454  
Since 1 July heating degree days 637 767  
Cooling Degree Days 0 0  
Month to date cooling degree days 0 0  
Year to date cooling degree days 1331 1104  
Growing Degree Days 4 (Base 50)    
Moisture  
Dew Point 45 °F    
Average Humidity 63    
Maximum Humidity 82    
Minimum Humidity 43    
Precipitation  
Precipitation 0.00 in 0.13 in 2.15 in (1889)
Month to date precipitation 2.58 3.59  
Year to date precipitation 68.34 45.51  
Snow  
Snow 0.00 in 0.00 in 5.00 in (1898)
Month to date snowfall 0.0 0.2  
Since 1 July snowfall 2.9 0.2  
Snow Depth 0.00 in    
Sea Level Pressure  
Sea Level Pressure 30.14 in    
Wind  
Wind Speed 5 mph (SSE)    
Max Wind Speed 13 mph    
Max Gust Speed 21 mph    
Visibility 10 miles    
Events      
T = Trace of Precipitation, MM = Missing Value Source: NWS Daily Summary

Daily Weather History Graph

Daily Weather History Graph

Search for Another Location

Airport:

Trip Planner

Search our weather history database for the weather conditions in past years. The results will help you decide how hot, cold, wet, or windy it might be!

Date:

Astronomy

Nov. 27, 2011 Rise Set
Actual Time 6:56 AM EST 4:30 PM EST
Civil Twilight 6:26 AM EST 5:00 PM EST
Nautical Twilight 5:52 AM EST 5:34 PM EST
Astronomical Twilight 5:19 AM EST 6:07 PM EST
Moon 9:19 AM EST (11/27) 7:05 PM EST (11/27)
Length of Visible Light 10h 34m
Length of Day
9h 34m
Waxing Crescent, 8% of the Moon is Illuminated
Nov 27
Waxing Crescent
Dec 2
First Quarter
Dec 10
Full
Dec 17
Last Quarter
Dec 24
New

Hourly Weather History & Observations

Time (EST) Temp. Dew Point Humidity Pressure Visibility Wind Dir Wind Speed Gust Speed Precip Events Conditions
12:51 AM 54.0 °F 34.0 °F 47% 30.17 in 10.0 mi Calm Calm - N/A   Clear
1:51 AM 53.1 °F 36.0 °F 52% 30.17 in 10.0 mi Calm Calm - N/A   Clear
2:51 AM 50.0 °F 37.0 °F 61% 30.17 in 10.0 mi Calm Calm - N/A   Clear
3:51 AM 50.0 °F 39.0 °F 66% 30.16 in 10.0 mi Calm Calm - N/A   Clear
4:51 AM 48.0 °F 41.0 °F 77% 30.15 in 10.0 mi NNE 4.6 mph - N/A   Clear
5:51 AM 48.0 °F 41.0 °F 77% 30.16 in 9.0 mi Calm Calm - N/A   Clear
6:51 AM 46.9 °F 41.0 °F 80% 30.16 in 9.0 mi ENE 3.5 mph - N/A   Clear
7:51 AM 50.0 °F 41.0 °F 71% 30.15 in 10.0 mi SSE 3.5 mph - N/A   Clear
8:51 AM 53.1 °F 44.1 °F 71% 30.15 in 9.0 mi Calm Calm - N/A   Clear
9:51 AM 57.0 °F 45.0 °F 64% 30.17 in 10.0 mi WSW 5.8 mph - N/A   Clear
10:51 AM 55.9 °F 45.0 °F 67% 30.17 in 10.0 mi WSW 9.2 mph - N/A   Clear
11:51 AM 57.9 °F 46.0 °F 65% 30.14 in 10.0 mi South 8.1 mph - N/A   Clear
12:51 PM 60.1 °F 46.0 °F 60% 30.13 in 10.0 mi Variable 6.9 mph - N/A   Clear
1:51 PM 61.0 °F 46.9 °F 60% 30.11 in 10.0 mi Variable 4.6 mph - N/A   Clear
2:51 PM 62.1 °F 48.0 °F 60% 30.10 in 10.0 mi SE 8.1 mph - N/A   Clear
3:51 PM 60.1 °F 48.0 °F 64% 30.11 in 10.0 mi Calm Calm - N/A   Clear
4:51 PM 57.0 °F 50.0 °F 77% 30.11 in 10.0 mi SE 4.6 mph - N/A   Clear
5:51 PM 59.0 °F 50.0 °F 72% 30.12 in 10.0 mi South 6.9 mph - N/A   Clear
6:51 PM 59.0 °F 50.0 °F 72% 30.13 in 10.0 mi SSE 4.6 mph - N/A   Clear
7:51 PM 59.0 °F 50.0 °F 72% 30.12 in 10.0 mi South 10.4 mph 20.7 mph N/A   Clear
8:51 PM 57.9 °F 50.0 °F 75% 30.12 in 10.0 mi South 9.2 mph 16.1 mph N/A   Clear
9:51 PM 59.0 °F 50.0 °F 72% 30.12 in 10.0 mi South 10.4 mph 20.7 mph N/A   Clear
10:51 PM 59.0 °F 50.0 °F 72% 30.12 in 10.0 mi South 10.4 mph 16.1 mph N/A   Clear
11:51 PM 57.9 °F 50.0 °F 75% 30.11 in 10.0 mi Variable 5.8 mph - N/A   Clear